GW1774 Weather Reports


Display with metric or nautical units.
time (UTC)temp
F
wind
direction
speed
MPH
gust
MPH
rain 1hr
in
rain 24hr
in
rain mn
in
humidity
%
barometer
mb
20260503045551 42 0.0 0.0 0.00 0.01 0.00 95 1015.8
20260503044547 43 0.0 0.0 0.00 0.01 0.00 95 1015.8
20260503043523 43 0.0 0.0 0.00 0.01 0.00 95 1015.8
20260503042519 43 0.0 0.0 0.00 0.01 0.00 95 1015.8
20260503041554 44 95 0.0 0.0 0.00 0.01 0.00 95 1015.7
20260503040530 44 94 0.0 0.0 0.00 0.01 0.00 95 1015.6
20260503035526 44 0.0 0.0 0.00 0.01 0.01 95 1015.7
20260503034521 44 95 0.0 0.0 0.00 0.01 0.01 95 1015.4
20260503033537 44 95 0.0 0.0 0.00 0.01 0.01 95 1015.4
20260503032532 45 0.0 0.0 0.00 0.01 0.01 95 1015.4
20260503031528 45 95 0.0 0.0 0.00 0.01 0.01 95 1015.3
20260503030523 45 0.0 0.0 0.00 0.01 0.01 95 1015.2
20260503025539 45 95 0.0 0.0 0.00 0.01 0.01 95 1015.1
20260503024554 45 0.0 0.0 0.00 0.01 0.01 94 1015.0
20260503023529 45 0.0 0.0 0.00 0.01 0.01 94 1014.9
20260503022524 46 0.0 0.0 0.00 0.01 0.01 94 1014.9
20260503021519 46 95 0.0 0.0 0.00 0.01 0.01 94 1014.7
20260503020534 46 95 0.0 0.0 0.00 0.01 0.01 94 1014.6
20260503015529 46 101 0.0 0.0 0.00 0.01 0.01 93 1014.5
20260503014524 47 112 0.0 1.0 0.00 0.01 0.01 93 1014.3
20260503013519 47 0.0 0.0 0.00 0.01 0.01 92 1014.3
20260503012535 48 0.0 0.0 0.00 0.01 0.01 92 1014.1
20260503011550 48 0.0 0.0 0.00 0.01 0.01 91 1014.0
20260503010545 49 0.0 0.0 0.00 0.01 0.01 91 1013.9
20260503005520 49 0.0 0.0 0.00 0.01 0.01 90 1013.8
20260503004515 49 0.0 0.0 0.00 0.01 0.01 89 1013.8
20260503003531 50 0.0 0.0 0.00 0.01 0.01 88 1013.6
20260503002546 50 0.0 0.0 0.00 0.01 0.01 87 1013.5
20260503001521 51 0.0 0.0 0.00 0.01 0.01 86 1013.5
20260503000517 52 118 0.0 0.0 0.00 0.01 0.01 84 1013.2
20260502235532 53 0.0 0.0 0.00 0.01 0.01 82 1013.1
20260502234548 53 0.0 0.0 0.00 0.01 0.01 80 1012.9
20260502233524 53 118 0.0 1.0 0.00 0.01 0.01 79 1012.7
20260502232520 54 120 0.0 1.0 0.00 0.01 0.01 78 1012.5
20260502231556 55 121 0.0 0.0 0.00 0.01 0.01 72 1012.4
20260502230531 56 0.0 0.0 0.00 0.01 0.01 70 1012.5
20260502225527 57 0.0 0.0 0.00 0.01 0.01 70 1012.4
20260502224522 57 0.0 0.0 0.00 0.01 0.01 69 1012.4
20260502223518 57 121 0.0 0.0 0.00 0.01 0.01 68 1012.4
20260502222534 57 119 0.0 1.0 0.00 0.01 0.01 67 1012.4
20260502221530 57 0.0 0.0 0.00 0.01 0.01 68 1012.3
20260502220525 56 0.0 0.0 0.00 0.01 0.01 69 1012.2
20260502215520 57 111 0.0 0.0 0.00 0.01 0.01 68 1012.3
20260502214516 57 0.0 0.0 0.00 0.01 0.01 65 1012.2
20260502213532 57 80 0.0 1.0 0.00 0.01 0.01 63 1012.1
20260502212527 57 95 0.0 1.0 0.00 0.01 0.01 64 1012.1
20260502211543 57 71 0.0 1.0 0.00 0.01 0.01 64 1012.1
20260502210539 58 117 0.0 2.0 0.00 0.01 0.01 63 1012.2
20260502205534 58 143 0.0 1.0 0.00 0.01 0.01 62 1012.3
20260502204530 58 208 0.0 1.0 0.00 0.01 0.01 64 1012.1
20260502203525 58 122 0.0 1.0 0.00 0.01 0.01 68 1012.2
20260502202521 59 244 0.0 1.0 0.00 0.01 0.01 63 1012.1
20260502201516 58 280 0.0 1.0 0.00 0.01 0.01 65 1012.0
20260502200532 58 286 0.0 1.0 0.00 0.01 0.01 65 1012.2
20260502195528 59 285 0.0 0.0 0.00 0.01 0.01 66 1012.1
20260502194523 59 286 0.0 1.0 0.00 0.01 0.01 61 1012.3
20260502193519 59 288 1.0 3.0 0.00 0.01 0.01 70 1012.4
20260502192535 59 350 1.0 2.0 0.00 0.01 0.01 69 1012.4
20260502191611 59 334 1.0 2.0 0.00 0.01 0.01 68 1012.5
20260502190526 59 259 1.0 2.0 0.00 0.01 0.01 61 1012.5
20260502185521 60 142 0.0 1.0 0.00 0.01 0.01 64 1012.5
20260502184517 59 14 1.0 3.0 0.00 0.01 0.01 64 1012.6
20260502183533 59 128 1.0 3.0 0.00 0.01 0.01 66 1012.6
20260502182528 59 129 1.0 2.0 0.00 0.01 0.01 66 1012.8
20260502181524 59 254 1.0 1.0 0.00 0.01 0.01 68 1013.0
20260502180519 59 294 0.0 1.0 0.00 0.01 0.01 68 1013.0
20260502163518 58 324 1.0 6.0 0.00 0.01 0.01 74 1013.6
20260502162533 56 259 1.0 2.0 0.00 0.01 0.01 80 1013.9
20260502161529 56 228 1.0 1.0 0.00 0.01 0.01 78 1014.4
20260502160523 56 238 0.0 0.0 0.00 0.01 0.01 82 1014.4
20260502151520 55 224 0.0 1.0 0.00 0.01 0.01 84 1014.0
20260502150535 55 224 0.0 1.0 0.00 0.01 0.01 86 1014.3
20260502130524 52 164 0.0 1.0 0.01 0.01 0.01 85 1013.4
20260502123530 52 142 0.0 0.0 0.01 0.01 0.01 90 1013.6
20260502122526 52 143 0.0 1.0 0.01 0.01 0.01 90 1013.8
20260502121522 52 143 0.0 0.0 0.01 0.01 0.01 91 1013.4
20260502120518 51 143 0.0 0.0 0.00 0.00 0.00 92 1013.2
20260502115534 51 0.0 0.0 0.00 0.00 0.00 92 1013.4
20260502114529 51 0.0 0.0 0.00 0.00 0.00 92 1013.5
20260502113525 51 142 0.0 0.0 0.00 0.00 0.00 92 1013.4
20260502112601 51 142 0.0 0.0 0.00 0.00 0.00 92 1013.3
20260502111516 51 142 0.0 0.0 0.00 0.00 0.00 92 1013.4
20260502110532 51 142 0.0 0.0 0.00 0.00 0.00 92 1013.5
20260502105528 51 142 0.0 0.0 0.00 0.00 0.00 92 1013.5
20260502104523 51 0.0 0.0 0.00 0.00 0.00 92 1013.4
20260502103519 52 142 0.0 0.0 0.00 0.00 0.00 91 1013.5
20260502102615 52 142 0.0 0.0 0.00 0.00 0.00 91 1013.4
20260502101530 51 122 0.0 0.0 0.00 0.00 0.00 92 1013.5
20260502100526 52 122 0.0 0.0 0.00 0.00 0.00 92 1013.6
20260502091523 51 0.0 0.0 0.00 0.00 0.00 92 1013.7
20260502090539 51 0.0 0.0 0.00 0.00 0.00 92 1013.7
20260502071529 51 0.0 0.0 0.00 0.00 0.00 94 1012.5
20260502070524 51 123 0.0 0.0 0.00 0.00 0.00 94 1012.5
20260502065520 51 0.0 0.0 0.00 0.00 0.00 94 1012.4
20260502064516 51 0.0 0.0 0.00 0.00 0.00 94 1012.4
20260502063532 51 0.0 0.0 0.00 0.00 0.00 94 1012.6
20260502062527 51 0.0 0.0 0.00 0.00 0.00 94 1012.9
20260502060539 51 0.0 0.0 0.00 0.00 0.00 93 1012.8
20260502055535 51 0.0 0.0 0.00 0.00 0.00 93 1012.8
20260502054530 51 0.0 0.0 0.00 0.00 0.00 93 1012.9
20260502053525 51 0.0 0.0 0.00 0.00 0.00 93 1013.2
20260502052541 51 123 0.0 0.0 0.00 0.00 0.00 93 1013.3
20260502051517 51 0.0 0.0 0.00 0.00 0.00 93 1013.2
20260502050533 51 0.0 0.0 0.00 0.00 0.00 93 1013.4